(149968) Trondal = 2005 TF152

Discovered at Nogales on 2005-10-11 by Tenagra II.
(149968) Trondal = 2005 TF152

Odd Trondal (b. 1951), a member of the Norwegian Astronomical Society since 1968, was elected a Member of Honour in 2003. Known for his photometric observations, he has distinguished himself as a discoverer of extragalactic novae, and his discovery of supernova 1999cb is the first such discovery by a Norwegian. [Ref: Minor Planet Circ. 65713]

Orbit

Orbit type: Main Belt

Note: WebGL enabled browser required.

epoch2024-03-31.0
epoch JD2460400.5
perihelion date2020-09-24.34447
perihelion JD2459116.84447
argument of perihelion (°)76.35978
ascending node (°)91.43239
inclination (°)2.71537
eccentricity0.0188119
perihelion distance (AU)2.6406308
Tisserand w.r.t. Jupiter3.4
ΔV w.r.t. Earth (km/sec)10.1
semimajor axis (AU)2.6912585
mean anomaly (°)286.56241
mean daily motion (°/day)0.22323930
aphelion distance (AU)2.742
period (years)4.42
P-vector [x]-0.97629623
P-vector [y]0.17572127
P-vector [z]0.12636340
Q-vector [x]-0.21119361
Q-vector [y]-0.90117296
Q-vector [z]-0.37852945
absolute magnitude16.44
phase slope0.15
uncertainty0
referenceMPEC 2024-E152
observations used549
oppositions17
arc length (days)9558
first opposition used1998
last opposition used2024
residual rms (arc-secs)0.71
perturbers coarse indicatorM-v
perturbers precise indicator003Ek
first observation date used1998-01-08.0
last observation date used2024-03-10.0
computer nameMPCLINUX
JD of orbit computation2456966.729633
perihelion JD uncertainty (days)4.0672E-04
argument of perihelion uncertainty (°)1.2304E-04
ascending node uncertainty (°)8.4157E-05
inclination uncertainty (°)3.4981E-06
eccentricity uncertainty 3.6228E-08
perihelion distance uncertainty (AU)9.3755E-08
Minimum Orbit Intersection Distances (in AU)
for orbit epoch: 2460400.5, reference: E2024-EF2
Mercury2.2118
Venus1.92125
Earth1.64708
Mars0.97604
Jupiter2.21532
Saturn6.35974
Uranus15.8001
Neptune27.0951

Observations

569 total observations over interval: 1998 01 08.22599 – 2024 03 10.54405
These data are available for download (format description).

Date (UT) J2000 RA J2000 Dec Magn Location Ref
1998 01 08.22599 08 03 42.98 +22 05 59.5 19.9 V 691 – Steward Observatory, Kitt Peak-Spacewatch MPS 152203
1998 01 08.24865 08 03 41.70 +22 06 04.9 20.0 V 691 – Steward Observatory, Kitt Peak-Spacewatch MPS 152203
1998 01 08.27130 08 03 40.34 +22 06 09.4 19.7 V 691 – Steward Observatory, Kitt Peak-Spacewatch MPS 152203
2001 11 20.37608 04 58 32.87 +21 04 18.8 19.8   704 – Lincoln Laboratory ETS, New Mexico MPS 152203
2001 11 20.39075 04 58 32.01 +21 04 18.1 19.9   704 – Lincoln Laboratory ETS, New Mexico MPS 152203
2001 11 20.40541 04 58 31.23 +21 04 17.0 19.8   704 – Lincoln Laboratory ETS, New Mexico MPS 152203
2001 11 20.42010 04 58 30.46 +21 04 16.7 20.2   704 – Lincoln Laboratory ETS, New Mexico MPS 152203
2001 12 23.28750 04 27 23.70 +20 38 26.3 20.4 V 691 – Steward Observatory, Kitt Peak-Spacewatch MPS 152203
2001 12 23.31035 04 27 22.56 +20 38 25.5 20.8 V 691 – Steward Observatory, Kitt Peak-Spacewatch MPS 152203
2001 12 23.33316 04 27 21.41 +20 38 24.7 20.7 V 691 – Steward Observatory, Kitt Peak-Spacewatch MPS 152203
2003 03 26.28479 12 06 52.32 +04 00 10.5 19.8   644 – Palomar Mountain/NEAT MPS 152203
2003 03 26.30580 12 06 51.22 +04 00 17.4 19.8   644 – Palomar Mountain/NEAT MPS 152203
2003 03 26.33809 12 06 49.54 +04 00 27.6 19.6   644 – Palomar Mountain/NEAT MPS 152203
2003 05 01.13958 11 45 16.95 +05 47 28.6 22.0 V 691 – Steward Observatory, Kitt Peak-Spacewatch MPS 152203
2003 05 01.16672 11 45 16.55 +05 47 29.5 21.2 V 691 – Steward Observatory, Kitt Peak-Spacewatch MPS 152203
2003 05 01.19333 11 45 16.09 +05 47 29.9 21.7 V 691 – Steward Observatory, Kitt Peak-Spacewatch MPS 152203
2005 09 23.40349 02 17 47.22 +09 49 37.2 20.7 V 691 – Steward Observatory, Kitt Peak-Spacewatch MPS 152203
2005 09 23.42085 02 17 46.68 +09 49 34.3 21.1 V 691 – Steward Observatory, Kitt Peak-Spacewatch MPS 152203
2005 09 23.44163 02 17 46.06 +09 49 30.3 20.4 V 691 – Steward Observatory, Kitt Peak-Spacewatch MPS 152203
2005 10 01.39730 02 13 19.22 +09 22 31.8 20.5 V 691 – Steward Observatory, Kitt Peak-Spacewatch MPS 152203
2005 10 01.41467 02 13 18.52 +09 22 27.9 20.5 V 691 – Steward Observatory, Kitt Peak-Spacewatch MPS 152203
2005 10 01.43702 02 13 17.61 +09 22 22.9 20.4 V 691 – Steward Observatory, Kitt Peak-Spacewatch MPS 152203
2005 10 11.33257 02 06 03.92 +08 42 16.4 19.8 R 926 – Tenagra II Observatory, Nogales MPS 147748
2005 10 11.33813 02 06 03.66 +08 42 14.9 19.7 R 926 – Tenagra II Observatory, Nogales MPS 147748
2005 10 11.34287 02 06 03.40 +08 42 13.7 19.8 R 926 – Tenagra II Observatory, Nogales MPS 147748
2005 10 12.36614 02 05 13.64 +08 37 49.0 20.0 V 691 – Steward Observatory, Kitt Peak-Spacewatch MPS 147748
2005 10 12.38346 02 05 12.76 +08 37 43.9 20.1 V 691 – Steward Observatory, Kitt Peak-Spacewatch MPS 147748
2005 10 12.40079 02 05 11.89 +08 37 39.4 20.1 V 691 – Steward Observatory, Kitt Peak-Spacewatch MPS 147748
2005 10 24.87515 01 54 28.30 +07 43 04.4 18.9 V A50 – Andrushivka Astronomical Observatory MPS 156611
2005 10 24.88238 01 54 27.96 +07 43 02.5 18.8 V A50 – Andrushivka Astronomical Observatory MPS 156611
2005 10 28.27038 01 51 30.02 +07 28 46.4 20.1 V 703 – Catalina Sky Survey MPS 147748
2005 10 28.27573 01 51 29.55 +07 28 45.2 21.1 V 703 – Catalina Sky Survey MPS 147748
2005 10 28.28108 01 51 29.34 +07 28 43.9 20.3 V 703 – Catalina Sky Survey MPS 147748
2005 10 28.28644 01 51 28.98 +07 28 41.9 19.8 V 703 – Catalina Sky Survey MPS 147748
2005 10 30.30675 01 49 44.29 +07 20 29.1 19.5 V G96 – Mt. Lemmon Survey MPS 147748
2005 10 30.31476 01 49 43.86 +07 20 27.3 19.5 V G96 – Mt. Lemmon Survey MPS 147748
2005 10 30.32272 01 49 43.42 +07 20 25.3 19.5 V G96 – Mt. Lemmon Survey MPS 147748
2005 10 30.33069 01 49 43.03 +07 20 23.3 19.6 V G96 – Mt. Lemmon Survey MPS 147748
2005 10 30.37538 01 49 40.65 +07 20 12.3 19.3 V G96 – Mt. Lemmon Survey MPS 147748
2005 10 30.38075 01 49 40.36 +07 20 11.1 19.7 V G96 – Mt. Lemmon Survey MPS 147748
2005 10 30.38610 01 49 40.08 +07 20 09.7 19.6 V G96 – Mt. Lemmon Survey MPS 147748
2005 10 30.39140 01 49 39.79 +07 20 08.5 19.4 V G96 – Mt. Lemmon Survey MPS 147748
2005 11 01.26943 01 48 04.28 +07 12 46.0 20.0 V G96 – Mt. Lemmon Survey MPS 149696
2005 11 01.27764 01 48 03.85 +07 12 43.9 20.0 V G96 – Mt. Lemmon Survey MPS 149696
2005 11 01.28582 01 48 03.38 +07 12 42.1 20.1 V G96 – Mt. Lemmon Survey MPS 149696
2005 11 01.29399 01 48 02.98 +07 12 40.2 20.0 V G96 – Mt. Lemmon Survey MPS 149696
2005 12 01.16844 01 30 19.58 +06 09 40.4 20.8 V G96 – Mt. Lemmon Survey MPS 152203
2005 12 01.17715 01 30 19.44 +06 09 40.3 21.0 V G96 – Mt. Lemmon Survey MPS 152203
2005 12 01.18583 01 30 19.29 +06 09 40.3 20.8 V G96 – Mt. Lemmon Survey MPS 152203
2005 12 01.19450 01 30 19.11 +06 09 40.5 20.6 V G96 – Mt. Lemmon Survey MPS 152203
2006 11 27.44934 09 33 04.17 +16 07 14.9 20.9 V G96 – Mt. Lemmon Survey MPS 190515
2006 11 27.45508 09 33 04.32 +16 07 14.9 20.8 V G96 – Mt. Lemmon Survey MPS 190515
2006 11 27.46212 09 33 04.57 +16 07 13.8 20.9 V G96 – Mt. Lemmon Survey MPS 190515
2006 11 27.46778 09 33 04.71 +16 07 13.5 21.1 V G96 – Mt. Lemmon Survey MPS 190515
2007 01 24.28401 09 24 14.94 +18 11 28.7 19.7   704 – Lincoln Laboratory ETS, New Mexico MPS 197076
2007 01 24.29627 09 24 14.26 +18 11 31.4 20.4   704 – Lincoln Laboratory ETS, New Mexico MPS 197076
2007 01 24.32081 09 24 13.02 +18 11 39.1 20.7   704 – Lincoln Laboratory ETS, New Mexico MPS 197076
2007 02 06.35243 09 12 29.00 +19 17 19.1 19.5 R 644 – Palomar Mountain/NEAT MPS 199385
2007 02 06.37283 09 12 27.84 +19 17 25.0 19.8 R 644 – Palomar Mountain/NEAT MPS 199385
2007 02 06.39324 09 12 26.63 +19 17 30.9 19.5 R 644 – Palomar Mountain/NEAT MPS 199385
2007 02 06.40523 09 12 25.92 +19 17 34.2 19.9 V G96 – Mt. Lemmon Survey MPS 199385
2007 02 06.41202 09 12 25.52 +19 17 36.0 19.7 V G96 – Mt. Lemmon Survey MPS 199385
2007 02 06.41869 09 12 25.12 +19 17 38.1 19.9 V G96 – Mt. Lemmon Survey MPS 199385
2007 02 06.42553 09 12 24.73 +19 17 39.9 19.7 V G96 – Mt. Lemmon Survey MPS 199385
2007 02 08.24426 09 10 43.66 +19 26 22.6 19.3 R 644 – Palomar Mountain/NEAT MPS 200231
2007 02 08.26466 09 10 42.46 +19 26 28.0 19.5 R 644 – Palomar Mountain/NEAT MPS 200231
2007 02 08.28256 09 10 41.41 +19 26 33.0 19.7 V G96 – Mt. Lemmon Survey MPS 199385
2007 02 08.28508 09 10 41.31 +19 26 34.1 19.6 R 644 – Palomar Mountain/NEAT MPS 200231
2007 02 08.29108 09 10 40.94 +19 26 35.5 19.6 V G96 – Mt. Lemmon Survey MPS 199385
2007 02 08.29943 09 10 40.44 +19 26 38.1 19.6 V G96 – Mt. Lemmon Survey MPS 199385
2007 02 08.30775 09 10 39.93 +19 26 40.2 19.5 V G96 – Mt. Lemmon Survey MPS 199385
2007 02 15.78140 09 03 53.23 +19 59 45.0 19.9 V 104 – San Marcello Pistoiese MPS 200231
2007 02 15.79564 09 03 52.41 +19 59 47.7 20.3 V 104 – San Marcello Pistoiese MPS 200231
2007 03 20.048200 08 46 12.92 +21 08 03.1 21.0   H55 – Astronomical Research Observatory, Charleston MPS 205457
2007 03 20.053275 08 46 12.88 +21 08 02.3 21.1   H55 – Astronomical Research Observatory, Charleston MPS 205457
2007 03 20.057881 08 46 12.83 +21 08 02.9 21.3   H55 – Astronomical Research Observatory, Charleston MPS 205457
2007 03 20.062490 08 46 12.78 +21 08 02.7 21.3   H55 – Astronomical Research Observatory, Charleston MPS 205457
2007 03 20.066985 08 46 12.78 +21 08 02.8 21.3   H55 – Astronomical Research Observatory, Charleston MPS 205457
2007 03 20.071720 08 46 12.76 +21 08 02.9 21.4   H55 – Astronomical Research Observatory, Charleston MPS 205457
2007 03 20.076109 08 46 12.68 +21 08 02.5 20.9   H55 – Astronomical Research Observatory, Charleston MPS 205457
2008 05 27.28468 16 10 31.04 -19 03 58.3 19.3 V G96 – Mt. Lemmon Survey MPS 250871
2008 05 27.29074 16 10 30.68 -19 03 57.7 19.8 V G96 – Mt. Lemmon Survey MPS 250871
2008 05 27.29688 16 10 30.32 -19 03 57.4 19.4 V G96 – Mt. Lemmon Survey MPS 250871
